[[{"header":{"parameterUnit":"m.s-1","parameterCategory":1,"la1":30.2991,"la2":30.254,"lo1":-89.0895,"lo2":-89.0444,"dy":0.0017,"dx":0.0017,"nx":28,"ny":28,"refTime":"2024-10-07T21:00:00:Z","depth":0,"parameterNumber":2,"parameterNumberName":"U-component_of_WINDS"},"data":[0,0,0,0,0,0,0,0,0,0,0,0,0,0,0,0,0,0,0,0,0,0,0,0,0,0,0,0,0,0,0,0,0,0,0,0,0,0,0,0,0,0,0,0,0,0,0,0,0,0,0,0,0,0,0,0,0,0,-2.1424,-2.1425,0,-2.1566,-2.1568,-2.1569,-2.1543,-2.154,-2.1538,-2.1535,-2.1685,-2.1691,-2.1697,0,0,0,0,0,0,0,0,0,0,0,0,0,-2.1132,-2.1137,-2.1423,-2.1425,-2.1427,-2.1566,-2.1568,-2.157,-2.1543,-2.154,-2.1537,-2.1534,-2.1683,-2.169,-2.1698,0,0,0,0,0,0,0,0,0,0,0,0,0,-2.1265,-2.1139,-2.1423,-2.143,-2.1432,-2.1565,-2.1568,-2.157,-2.1544,-2.154,-2.1536,-2.1532,-2.168,-2.169,-2.1699,-2.1835,0,0,-2.1728,-2.1732,0,0,0,0,0,0,0,0,-2.1257,-2.1276,-2.1428,-2.143,-2.1433,-2.1532,-2.152,-2.1659,-2.1545,-2.1502,-2.1535,-2.1531,-2.1638,-2.165,-2.1686,-2.1842,-2.1848,-2.1729,-2.1735,-2.1739,-2.1742,0,0,0,0,0,0,0,-2.1248,-2.1269,-2.148,-2.143,-2.1433,-2.1428,-2.1442,-2.1546,-2.159,-2.1505,-2.1503,-2.152,-2.1638,-2.1676,-2.1689,-2.185,-2.1729,-2.1737,-2.1743,-2.1747,-2.2126,-2.213,0,0,0,0,0,0,-2.1236,-2.1262,-2.1475,-2.1484,-2.1334,-2.1436,-2.1452,-2.1504,-2.1588,-2.1597,-2.1524,-2.1519,-2.1662,-2.1678,-2.1694,-2.186,-2.1739,-2.1748,-2.1753,-2.2122,-2.2127,-2.2132,0,0,0,0,0,0,-2.123,-2.1255,-2.147,-2.1373,-2.1399,-2.1445,-2.1504,-2.1509,-2.1547,-2.1602,-2.161,-2.1555,-2.166,-2.1681,-2.18,-2.1865,-2.1752,-2.1761,-2.2117,-2.2123,-2.2129,-2.2192,0,0,0,0,0,0,-2.1222,-2.1253,-2.1305,-2.1374,-2.1405,-2.1572,-2.1508,-2.1515,-2.1564,-2.1559,-2.1633,-2.1642,-2.1658,-2.1786,-2.1809,-2.1876,-2.1768,-2.2111,-2.212,-2.2127,-2.2184,-2.22,-2.2213,0,0,0,0,0,-2.1211,-2.1317,-2.1307,-2.1333,-2.147,-2.1576,-2.1594,-2.1609,-2.1569,-2.1622,-2.1657,-2.164,-2.1853,-2.1798,-2.1825,-2.1895,-2.2107,-2.2117,-2.2127,-2.2178,-2.2197,-2.2212,0,0,0,0,0,0,-2.1256,-2.1326,-2.1316,-2.1447,-2.1506,-2.1571,-2.1638,-2.1628,-2.17,-2.1693,-2.171,-2.1727,-2.1849,-2.1883,-2.1821,-2.2031,-2.1975,-2.199,-2.2004,-2.2023,-2.2037,-2.2027,-2.1776,0,0,0,0,0,-2.128,-2.136,-2.1417,-2.1528,-2.1557,-2.1593,-2.164,-2.1646,-2.1708,-2.1733,-2.1777,-2.1838,-2.1919,-2.1973,-2.205,-2.2188,-2.2205,-2.2249,-2.2264,-2.2275,-2.2289,-2.2366,-2.2387,-2.2164,-2.2164,-2.2164,0,0,-2.1333,-2.1381,-2.1431,-2.1538,-2.1584,-2.1667,-2.1614,-2.1704,-2.1766,-2.1747,-2.1863,-2.1897,-2.1967,-2.2096,-2.2156,-2.2129,-2.2354,-2.2288,-2.2296,-2.2304,-2.2379,-2.24,-2.2419,-2.2171,-2.2169,-2.2168,0,0,-2.1472,-2.1515,-2.1612,-2.1659,-2.1729,-2.1752,-2.1775,-2.1842,-2.1864,-2.198,-2.1967,-2.2042,-2.2181,-2.2231,-2.2275,-2.2432,-2.2421,-2.2457,-2.2533,-2.2608,-2.2626,-2.2641,-2.27,-2.272,-2.247,-2.2471,-2.2471,0,-2.1529,-2.1652,-2.1664,-2.1756,-2.1804,-2.1788,-2.1888,-2.1933,-2.2025,-2.2059,-2.2027,-2.2202,-2.2247,-2.239,-2.2428,-2.2463,-2.2492,-2.245,-2.2622,-2.2638,-2.2653,-2.2708,-2.273,-2.2475,-2.2474,-2.2474,-2.2473,0,-2.172,-2.1806,-2.1876,-2.1965,-2.202,-2.2116,-2.2143,-2.2198,-2.2199,-2.2226,-2.2344,-2.2398,-2.2487,-2.2521,-2.2523,-2.2664,-2.2645,-2.2617,-2.2562,-2.2678,-2.2731,-2.2752,-2.2481,-2.2479,-2.2478,-2.2477,0,0,-2.1893,-2.1985,-2.2011,-2.2052,-2.2127,-2.2195,-2.2289,-2.2374,-2.2422,-2.2486,-2.2567,-2.2684,-2.2659,-2.2709,-2.2717,-2.2783,-2.2906,-2.2747,-2.2749,-2.2777,-2.3066,-2.3088,-2.3113,-2.2897,-2.2901,-2.2904,-2.3061,0,-2.204,-2.2206,-2.2219,-2.237,-2.245,-2.2436,-2.2519,-2.2575,-2.2602,-2.2675,-2.2705,-2.2788,-2.2748,-2.2778,-2.2842,-2.2877,-2.2965,-2.2866,-2.2975,-2.2979,-2.296,-2.314,-2.3164,-2.3309,-2.3081,-2.3085,-2.3087,0,-2.2235,-2.2304,-2.2462,-2.2527,-2.2561,-2.2635,-2.2715,-2.2784,-2.2847,-2.2862,-2.2918,-2.2916,-2.3015,-2.2953,-2.309,-2.3023,-2.3068,-2.3092,-2.3098,-2.3111,-2.3042,-2.316,-2.3355,-2.3378,-2.3119,-2.3117,-2.3115,0,-2.2348,-2.248,-2.2592,-2.2626,-2.2704,-2.2757,-2.2792,-2.2851,-2.2902,-2.2971,-2.3005,-2.3085,-2.313,-2.3193,-2.3214,-2.3167,-2.3351,-2.3291,-2.3368,-2.3368,-2.341,-2.3408,-2.3618,-2.3435,-2.3435,-2.3434,-2.3434,0,-2.2513,-2.2611,-2.2644,-2.2713,-2.2822,-2.2836,-2.2945,-2.2977,-2.303,-2.3106,-2.3098,-2.317,-2.3192,-2.3268,-2.3285,-2.3397,-2.3417,-2.3433,-2.3437,-2.3436,-2.3434,-2.3467,-2.3459,-2.344,-2.3439,-2.3438,-2.3437,0,-2.2659,-2.2684,-2.2806,-2.2869,-2.2887,-2.2965,-2.302,-2.3087,-2.3111,-2.3208,-2.3232,-2.3271,-2.3361,-2.3387,-2.3494,-2.3506,-2.3638,-2.3631,-2.3617,-2.3618,-2.3695,-2.3688,-2.3936,-2.397,-2.3762,-2.3764,-2.3766,0,-2.2764,-2.2839,-2.2909,-2.2959,-2.2996,-2.3076,-2.3128,-2.3144,-2.3198,-2.3276,-2.3334,-2.3422,-2.3493,-2.3636,-2.3676,-2.3758,-2.3755,-2.3836,-2.3768,-2.3764,-2.3759,-2.3756,-2.3764,-2.385,-2.3852,-2.3854,-2.3856,0,-2.2948,-2.2957,-2.303,-2.3109,-2.317,-2.3233,-2.3294,-2.3335,-2.336,-2.3422,-2.3512,-2.3567,-2.3676,-2.3765,-2.3848,-2.3885,-2.3876,-2.3876,-2.3899,-2.39,-2.3889,-2.3898,-2.3655,-2.3871,-2.387,-2.3869,-2.3868,-2.3867,-2.3078,-2.3144,-2.3205,-2.3287,-2.3334,-2.3391,-2.3457,-2.349,-2.3565,-2.3655,-2.366,-2.3758,-2.382,-2.3931,-2.3973,-2.4051,-2.4027,-2.406,-2.4068,-2.4077,-2.4084,-2.3874,-2.4066,-2.4065,-2.4065,-2.4065,-2.4064,0,-2.3264,-2.3301,-2.3377,-2.3462,-2.3527,-2.351,-2.3576,-2.3632,-2.3719,-2.3776,-2.3846,-2.3951,-2.4036,-2.4081,-2.4166,-2.422,-2.4218,-2.4242,-2.424,-2.4249,-2.4099,-2.4072,-2.4243,-2.4243,-2.4243,-2.4243,-2.4243,-2.4243,-2.3368,-2.348,-2.3496,-2.3631,-2.3668,-2.3764,-2.3803,-2.3856,-2.3902,-2.4019,-2.4089,-2.4117,-2.4171,-2.426,-2.4337,-2.4349,-2.4381,-2.4409,-2.4418,-2.4278,-2.426,-2.4242,-2.4217,-2.4415,-2.4415,-2.4561,-2.4563,-2.4564]},{"header":{"parameterUnit":"m.s-1","parameterCategory":1,"la1":30.2991,"la2":30.254,"lo1":-89.0895,"lo2":-89.0444,"dy":0.0017,"dx":0.0017,"nx":28,"ny":28,"refTime":"2024-10-07T21:00:00:Z","depth":0,"parameterNumber":3,"parameterNumberName":"V-component_of_WINDS"},"data":[0,0,0,0,0,0,0,0,0,0,0,0,0,0,0,0,0,0,0,0,0,0,0,0,0,0,0,0,0,0,0,0,0,0,0,0,0,0,0,0,0,0,0,0,0,0,0,0,0,0,0,0,0,0,0,0,0,0,-5.8944,-5.8945,0,-5.8977,-5.8977,-5.8978,-5.8871,-5.8868,-5.8865,-5.8861,-5.8892,-5.8895,-5.8899,0,0,0,0,0,0,0,0,0,0,0,0,0,-5.8786,-5.879,-5.8944,-5.8945,-5.8945,-5.8977,-5.8977,-5.8978,-5.8872,-5.8868,-5.8864,-5.886,-5.889,-5.8895,-5.8899,0,0,0,0,0,0,0,0,0,0,0,0,0,-5.884,-5.8791,-5.8944,-5.8896,-5.8892,-5.8977,-5.8977,-5.8978,-5.8872,-5.8868,-5.8863,-5.8858,-5.8889,-5.8894,-5.89,-5.9032,0,0,-5.8917,-5.892,0,0,0,0,0,0,0,0,-5.8837,-5.8846,-5.8903,-5.89,-5.8895,-5.8915,-5.8932,-5.8996,-5.8874,-5.888,-5.8861,-5.8856,-5.8903,-5.8907,-5.8924,-5.9033,-5.9035,-5.8918,-5.8921,-5.8924,-5.8925,0,0,0,0,0,0,0,-5.8834,-5.8844,-5.8957,-5.8904,-5.8899,-5.8871,-5.8874,-5.8944,-5.8918,-5.8879,-5.8871,-5.8877,-5.89,-5.8919,-5.8924,-5.9035,-5.8918,-5.8923,-5.8926,-5.8929,-5.9253,-5.9258,0,0,0,0,0,0,-5.8837,-5.8842,-5.8956,-5.8958,-5.8854,-5.8878,-5.8881,-5.8914,-5.8917,-5.8913,-5.8881,-5.8872,-5.8911,-5.8917,-5.8924,-5.9078,-5.8924,-5.8929,-5.8932,-5.9247,-5.9254,-5.9259,0,0,0,0,0,0,-5.8834,-5.8848,-5.8955,-5.8898,-5.8909,-5.8886,-5.8924,-5.8917,-5.8935,-5.8918,-5.8913,-5.8905,-5.8908,-5.8916,-5.9006,-5.9078,-5.8932,-5.8937,-5.9241,-5.9249,-5.9257,-5.9388,0,0,0,0,0,0,-5.883,-5.8848,-5.8899,-5.89,-5.8913,-5.9037,-5.8928,-5.8921,-5.8946,-5.8934,-5.894,-5.8936,-5.8905,-5.8998,-5.9012,-5.9083,-5.8941,-5.9235,-5.9245,-5.9254,-5.9377,-5.9399,-5.9418,0,0,0,0,0,-5.8825,-5.8934,-5.8902,-5.8916,-5.8976,-5.9042,-5.9049,-5.9012,-5.8952,-5.9002,-5.8991,-5.8936,-5.9068,-5.9008,-5.9022,-5.9097,-5.923,-5.9242,-5.9253,-5.9368,-5.9395,-5.9417,0,0,0,0,0,0,-5.894,-5.8933,-5.8897,-5.9011,-5.9028,-5.9024,-5.9086,-5.9042,-5.9075,-5.9063,-5.9014,-5.9016,-5.9114,-5.9114,-5.9048,-5.9224,-5.9138,-5.9154,-5.922,-5.9246,-5.9266,-5.9264,-5.8946,0,0,0,0,0,-5.8979,-5.9034,-5.9024,-5.9125,-5.9136,-5.911,-5.9137,-5.9107,-5.9122,-5.9128,-5.9124,-5.914,-5.9184,-5.9215,-5.9256,-5.9376,-5.9375,-5.9434,-5.9455,-5.9472,-5.9485,-5.9548,-5.9574,-5.9298,-5.9298,-5.9297,0,0,-5.906,-5.9063,-5.91,-5.9148,-5.9158,-5.9215,-5.9116,-5.9181,-5.9222,-5.9137,-5.9222,-5.9219,-5.9234,-5.9339,-5.9385,-5.9342,-5.9561,-5.9487,-5.95,-5.9505,-5.9563,-5.9589,-5.9612,-5.9306,-5.9304,-5.9303,0,0,-5.9236,-5.9244,-5.9328,-5.934,-5.9356,-5.9338,-5.9359,-5.9361,-5.9357,-5.9441,-5.9378,-5.9426,-5.9505,-5.9517,-5.9534,-5.9714,-5.9664,-5.9729,-5.9836,-5.9898,-5.9919,-5.9938,-6.0002,-6.0026,-5.9742,-5.9742,-5.9743,0,-5.9333,-5.9418,-5.9377,-5.9446,-5.9468,-5.9395,-5.948,-5.9493,-5.9521,-5.9538,-5.9489,-5.9586,-5.959,-5.9697,-5.9742,-5.9758,-5.9778,-5.9728,-5.992,-5.9939,-5.9956,-6.0016,-6.004,-5.975,-5.9749,-5.9748,-5.9748,0,-5.9537,-5.9596,-5.9662,-5.9692,-5.9722,-5.9798,-5.9768,-5.9803,-5.977,-5.9757,-5.9842,-5.9845,-5.9885,-5.9908,-5.9876,-6.001,-5.9983,-5.9928,-5.9841,-5.999,-6.0046,-6.0069,-5.9761,-5.9758,-5.9756,-5.9754,0,0,-5.9787,-5.9793,-5.9818,-5.9831,-5.9843,-5.9887,-5.9959,-5.9999,-6.0029,-6.0051,-6.011,-6.0178,-6.0127,-6.0146,-6.0115,-6.0169,-6.0311,-6.0107,-6.0107,-6.0145,-6.0458,-6.0499,-6.0527,-6.0278,-6.0282,-6.0285,-6.0457,0,-5.9959,-6.0084,-6.0049,-6.0174,-6.0227,-6.0159,-6.0221,-6.0235,-6.0224,-6.0267,-6.0254,-6.0303,-6.0233,-6.0244,-6.0295,-6.0283,-6.0373,-6.027,-6.0331,-6.0334,-6.0329,-6.0556,-6.0599,-6.0761,-6.0478,-6.0482,-6.0484,0,-6.0177,-6.0209,-6.0339,-6.0342,-6.0363,-6.042,-6.0453,-6.0495,-6.0509,-6.0497,-6.0519,-6.0476,-6.0545,-6.0459,-6.0553,-6.0484,-6.0507,-6.0505,-6.051,-6.0514,-6.0418,-6.0565,-6.0812,-6.0836,-6.0518,-6.0516,-6.0513,0,-6.0346,-6.042,-6.0508,-6.0521,-6.0526,-6.0568,-6.0572,-6.0581,-6.0606,-6.0635,-6.0651,-6.0687,-6.0706,-6.0734,-6.0702,-6.0642,-6.0802,-6.0712,-6.0793,-6.0794,-6.0829,-6.0828,-6.1083,-6.0845,-6.0845,-6.0844,-6.0844,0,-6.0542,-6.0624,-6.0584,-6.0637,-6.0727,-6.0685,-6.0775,-6.0771,-6.0779,-6.083,-6.0772,-6.082,-6.0775,-6.082,-6.0795,-6.0876,-6.0886,-6.0877,-6.087,-6.0883,-6.0884,-6.0896,-6.0884,-6.0851,-6.0849,-6.0848,-6.0847,0,-6.0746,-6.0722,-6.0812,-6.081,-6.0812,-6.0878,-6.0875,-6.0924,-6.0909,-6.0974,-6.0986,-6.0963,-6.1012,-6.0983,-6.1032,-6.1015,-6.1122,-6.1099,-6.1118,-6.1112,-6.1194,-6.1186,-6.1465,-6.15,-6.1241,-6.1243,-6.1245,0,-6.0872,-6.0934,-6.0939,-6.0969,-6.0977,-6.1027,-6.1053,-6.1014,-6.1043,-6.1063,-6.1109,-6.1153,-6.1186,-6.1268,-6.1254,-6.1292,-6.1269,-6.1364,-6.1274,-6.1285,-6.127,-6.1266,-6.1272,-6.1382,-6.1385,-6.1388,-6.139,0,-6.11,-6.1084,-6.1125,-6.1162,-6.1195,-6.1221,-6.1243,-6.1271,-6.1231,-6.1267,-6.1317,-6.1343,-6.1394,-6.1438,-6.147,-6.1472,-6.1425,-6.1418,-6.1439,-6.1452,-6.1461,-6.1457,-6.1167,-6.1412,-6.141,-6.1408,-6.1407,-6.1406,-6.1268,-6.1319,-6.1331,-6.1377,-6.139,-6.1411,-6.1457,-6.1448,-6.1489,-6.1528,-6.1502,-6.1561,-6.1571,-6.1609,-6.1617,-6.1662,-6.1623,-6.1653,-6.1661,-6.1669,-6.168,-6.1454,-6.1668,-6.1667,-6.1666,-6.1666,-6.1665,0,-6.1492,-6.1495,-6.1539,-6.1571,-6.1608,-6.1561,-6.1582,-6.1615,-6.1668,-6.1683,-6.1717,-6.1773,-6.1816,-6.1806,-6.1844,-6.1881,-6.186,-6.1892,-6.1889,-6.189,-6.1712,-6.1691,-6.1909,-6.1909,-6.1909,-6.1908,-6.1908,-6.1908,-6.1612,-6.1697,-6.1683,-6.1772,-6.1775,-6.1833,-6.1849,-6.1868,-6.1879,-6.1945,-6.1981,-6.1974,-6.1978,-6.2016,-6.2052,-6.2048,-6.2065,-6.2105,-6.2093,-6.1927,-6.1903,-6.188,-6.1859,-6.2109,-6.2109,-6.2267,-6.2268,-6.2269]}]]